| time (UTC) | temp F | wind direction | speed knots | gust knots | rain 1hr in | rain 24hr in | rain mn in | humidity % | barometer mb |
| 20260503224134 | 93 | 225 | 3.5 | 8.7 | 0.00 | 0.00 | 0.00 | 24 | |
| 20260503223134 | 92 | 293 | 4.3 | 7.8 | 0.00 | 0.00 | 0.00 | 25 | |
| 20260503222134 | 92 | 248 | 3.5 | 7.8 | 0.00 | 0.00 | 0.00 | 27 | |
| 20260503221133 | 90 | 293 | 5.2 | 8.7 | 0.00 | 0.00 | 0.00 | 30 | |
| 20260503220154 | 89 | 270 | 6.1 | 10.4 | 0.00 | 0.00 | 0.00 | 30 | |
| 20260503215133 | 89 | 293 | 5.2 | 9.6 | 0.00 | 0.00 | 0.00 | 32 | |
| 20260503214134 | 88 | 293 | 6.1 | 8.7 | 0.00 | 0.00 | 0.00 | 32 | |
| 20260503213133 | 88 | 293 | 6.1 | 10.4 | 0.00 | 0.00 | 0.00 | 32 | |
| 20260503212133 | 87 | 270 | 5.2 | 13.0 | 0.00 | 0.00 | 0.00 | 32 | |
| 20260503211134 | 86 | 293 | 7.0 | 13.0 | 0.00 | 0.00 | 0.00 | 34 | |
| 20260503210234 | 86 | 293 | 6.1 | 11.3 | 0.00 | 0.00 | 0.00 | 34 | |
| 20260503205134 | 85 | 293 | 6.1 | 10.4 | 0.00 | 0.00 | 0.00 | 37 | |
| 20260503204134 | 85 | 293 | 6.1 | 11.3 | 0.00 | 0.00 | 0.00 | 39 | |
| 20260503203133 | 84 | 293 | 6.1 | 12.2 | 0.00 | 0.00 | 0.00 | 40 | |
| 20260503202137 | 83 | 293 | 7.0 | 11.3 | 0.00 | 0.00 | 0.00 | 40 | |
| 20260503201133 | 82 | 293 | 7.0 | 12.2 | 0.00 | 0.00 | 0.00 | 41 | |
| 20260503200137 | 82 | 293 | 7.0 | 10.4 | 0.00 | 0.00 | 0.00 | 42 | |
| 20260503195157 | 81 | 293 | 6.1 | 10.4 | 0.00 | 0.00 | 0.00 | 44 | |
| 20260503194134 | 80 | 293 | 7.0 | 11.3 | 0.00 | 0.00 | 0.00 | 45 | |
| 20260503193154 | 79 | 293 | 7.0 | 12.2 | 0.00 | 0.00 | 0.00 | 46 | |
| 20260503192134 | 79 | 293 | 7.0 | 10.4 | 0.00 | 0.00 | 0.00 | 46 | |
| 20260503191134 | 78 | 293 | 6.1 | 10.4 | 0.00 | 0.00 | 0.00 | 46 | |
| 20260503190134 | 77 | 293 | 7.0 | 10.4 | 0.00 | 0.00 | 0.00 | 48 | |
| 20260503185154 | 77 | 293 | 6.1 | 10.4 | 0.00 | 0.00 | 0.00 | 49 | |
| 20260503184134 | 76 | 293 | 7.0 | 11.3 | 0.00 | 0.00 | 0.00 | 50 | |
| 20260503183134 | 76 | 293 | 7.0 | 11.3 | 0.00 | 0.00 | 0.00 | 50 | |
| 20260503182134 | 75 | 293 | 6.1 | 11.3 | 0.00 | 0.00 | 0.00 | 51 | |
| 20260503181134 | 74 | 293 | 7.0 | 11.3 | 0.00 | 0.00 | 0.00 | 50 | |
| 20260503180133 | 74 | 293 | 7.0 | 12.2 | 0.00 | 0.00 | 0.00 | 50 | |
| 20260503175133 | 73 | 293 | 6.1 | 10.4 | 0.00 | 0.00 | 0.00 | 52 | |
| 20260503174134 | 73 | 293 | 6.1 | 9.6 | 0.00 | 0.00 | 0.00 | 53 | |
| 20260503173138 | 72 | 270 | 5.2 | 9.6 | 0.00 | 0.00 | 0.00 | 53 | |
| 20260503172134 | 71 | 293 | 6.1 | 9.6 | 0.00 | 0.00 | 0.00 | 55 | |
| 20260503171134 | 70 | 270 | 5.2 | 10.4 | 0.00 | 0.00 | 0.00 | 56 | |
| 20260503170133 | 69 | 293 | 5.2 | 8.7 | 0.00 | 0.00 | 0.00 | 60 | |
| 20260503160134 | 64 | 270 | 1.7 | 6.1 | 0.00 | 0.00 | 0.00 | 73 | |
| 20260503150134 | 60 | 270 | 3.5 | 8.7 | 0.00 | 0.00 | 0.00 | 79 | |
| 20260503140134 | 59 | 293 | 5.2 | 8.7 | 0.00 | 0.00 | 0.00 | 81 | |
| 20260503131134 | 59 | 315 | 2.6 | 6.1 | 0.00 | 0.00 | 0.00 | 82 | |
| 20260503130154 | 59 | 315 | 2.6 | 5.2 | 0.00 | 0.00 | 0.00 | 82 | |
| 20260503120134 | 59 | 315 | 0.9 | 4.3 | 0.00 | 0.00 | 0.00 | 81 | |
| 20260503110139 | 60 | 315 | 2.6 | 6.1 | 0.00 | 0.00 | 0.00 | 80 | |
| 20260503100134 | 61 | 293 | 3.5 | 7.0 | 0.00 | 0.00 | 0.00 | 80 | |
| 20260503090134 | 61 | 293 | 4.3 | 7.8 | 0.00 | 0.00 | 0.00 | 80 | |
| 20260503081134 | 63 | 293 | 6.1 | 9.6 | 0.00 | 0.00 | 0.00 | 75 | |
| 20260503080134 | 63 | 293 | 7.0 | 9.6 | 0.00 | 0.00 | 0.00 | 74 | |
| 20260503072134 | 62 | 293 | 4.3 | 7.0 | 0.00 | 0.00 | 0.00 | 79 | |
| 20260503071134 | 61 | 293 | 1.7 | 5.2 | 0.00 | 0.00 | 0.00 | 83 | |
| 20260503070134 | 61 | 293 | 2.6 | 4.3 | 0.00 | 0.00 | 0.00 | 83 | |
| 20260503060134 | 63 | 0.0 | 0.0 | 0.00 | 0.00 | 0.00 | 80 | ||
| 20260503054134 | 64 | 0.0 | 0.0 | 0.00 | 0.00 | 0.00 | 78 | ||
| 20260503053134 | 64 | 0.0 | 0.0 | 0.00 | 0.00 | 0.00 | 77 | ||
| 20260503052134 | 65 | 0.0 | 0.9 | 0.00 | 0.00 | 0.00 | 76 | ||
| 20260503051134 | 66 | 0.0 | 0.0 | 0.00 | 0.00 | 0.00 | 75 | ||
| 20260503050134 | 67 | 0.0 | 0.9 | 0.00 | 0.00 | 0.00 | 73 | ||
| 20260503045134 | 68 | 0.0 | 3.5 | 0.00 | 0.00 | 0.00 | 70 | ||
| 20260503044134 | 69 | 0.0 | 1.7 | 0.00 | 0.00 | 0.00 | 68 | ||
| 20260503043154 | 70 | 0.0 | 0.0 | 0.00 | 0.00 | 0.00 | 66 | ||
| 20260503042134 | 71 | 0.0 | 0.0 | 0.00 | 0.00 | 0.00 | 65 | ||
| 20260503041134 | 71 | 0.0 | 0.0 | 0.00 | 0.00 | 0.00 | 64 | ||
| 20260503040134 | 71 | 248 | 1.7 | 5.2 | 0.00 | 0.00 | 0.00 | 63 | |
| 20260503035134 | 72 | 0.0 | 0.0 | 0.00 | 0.00 | 0.00 | 62 | ||
| 20260503034134 | 73 | 0.0 | 0.9 | 0.00 | 0.00 | 0.00 | 61 | ||
| 20260503033134 | 74 | 248 | 0.9 | 5.2 | 0.00 | 0.00 | 0.00 | 59 | |
| 20260503032154 | 74 | 270 | 3.5 | 7.8 | 0.00 | 0.00 | 0.00 | 58 | |
| 20260503031134 | 75 | 270 | 5.2 | 13.0 | 0.00 | 0.00 | 0.00 | 57 | |
| 20260503030133 | 76 | 270 | 4.3 | 8.7 | 0.00 | 0.00 | 0.00 | 55 | |
| 20260503025134 | 76 | 293 | 3.5 | 7.8 | 0.00 | 0.00 | 0.00 | 53 | |
| 20260503024134 | 77 | 293 | 3.5 | 7.0 | 0.00 | 0.00 | 0.00 | 52 | |
| 20260503023134 | 77 | 270 | 4.3 | 7.0 | 0.00 | 0.00 | 0.00 | 52 | |
| 20260503022134 | 78 | 270 | 4.3 | 7.8 | 0.00 | 0.00 | 0.00 | 51 | |
| 20260503021133 | 78 | 293 | 5.2 | 8.7 | 0.00 | 0.00 | 0.00 | 51 | |
| 20260503020134 | 78 | 293 | 6.1 | 12.2 | 0.00 | 0.00 | 0.00 | 50 | |
| 20260503015134 | 78 | 293 | 7.0 | 11.3 | 0.00 | 0.00 | 0.00 | 49 | |
| 20260503014134 | 79 | 293 | 6.1 | 11.3 | 0.00 | 0.00 | 0.00 | 49 | |
| 20260503013134 | 79 | 293 | 7.0 | 12.2 | 0.00 | 0.00 | 0.00 | 49 | |
| 20260503012134 | 79 | 293 | 7.0 | 12.2 | 0.00 | 0.00 | 0.00 | 49 | |
| 20260503011134 | 79 | 293 | 6.1 | 10.4 | 0.00 | 0.00 | 0.00 | 49 | |
| 20260503010154 | 79 | 293 | 7.0 | 13.0 | 0.00 | 0.00 | 0.00 | 49 | |
| 20260503005134 | 79 | 293 | 6.1 | 13.0 | 0.00 | 0.00 | 0.00 | 49 | |
| 20260503004134 | 78 | 293 | 7.8 | 11.3 | 0.00 | 0.00 | 0.00 | 50 | |
| 20260503003525 | 78 | 293 | 7.8 | 16.5 | 0.00 | 0.00 | 0.00 | 50 | |
| 20260503003154 | 78 | 293 | 7.8 | 16.5 | 0.00 | 0.00 | 0.00 | 50 | |
| 20260503002134 | 78 | 315 | 7.8 | 13.0 | 0.00 | 0.00 | 0.00 | 49 | |
| 20260503001134 | 79 | 293 | 7.8 | 13.0 | 0.00 | 0.00 | 0.00 | 48 | |
| 20260503000134 | 79 | 293 | 7.0 | 11.3 | 0.00 | 0.00 | 0.00 | 48 | |
| 20260502235134 | 78 | 293 | 7.0 | 12.2 | 0.00 | 0.00 | 0.00 | 49 | |
| 20260502234133 | 78 | 293 | 8.7 | 12.2 | 0.00 | 0.00 | 0.00 | 50 | |
| 20260502233134 | 77 | 315 | 7.0 | 11.3 | 0.00 | 0.00 | 0.00 | 51 | |
| 20260502232134 | 77 | 293 | 7.0 | 11.3 | 0.00 | 0.00 | 0.00 | 52 | |
| 20260502231154 | 76 | 315 | 7.0 | 12.2 | 0.00 | 0.00 | 0.00 | 52 | |
| 20260502230134 | 76 | 293 | 7.0 | 13.0 | 0.00 | 0.00 | 0.00 | 53 | |
| 20260502225134 | 77 | 293 | 7.0 | 12.2 | 0.00 | 0.00 | 0.00 | 51 |